Notices

What's New in latest Release from April 7th, 2021:

- Updated Glossary, including Speed of Maximum Gust, and Total Hourly Precipitation

- Updated national and regional climate services offices contacts and prices information

- Addition of station inventory lists for 1981-2010, 1971-2000, and 1961-1990 Normals.

If you haven't already, please take our survey and provide feedback about our website: https://eccc.sondage-survey.ca/f/LanguageSelection.aspx?s=442ca660-fcf1-47c0-95a9-59707d6fd709

Hourly Data Report for December 09, 2019

EUREKA CLIMATE
NUNAVUT
Current Station Operator: ECCC - MSC

79°59'21.000" N
85°56'02.000" W
10.00 m
2401199
71613
NEK

Download Data

Hourly Data (December 2019)
Hourly Data Report for December 9, 2019
TIME
LST
Temp Definition
°C
Dew Point Definition
°C
Rel Hum Definition
%
Precip. Amount Definition
mm

Wind Dir Definition
10's deg

Wind Spd Definition
km/h
Visibility Definition
km
Stn Press Definition
kPa
Hmdx Definition


Wind Chill Definition


Weather Definition


00:00 -36.6 -40.2 69 0.0 12 3   102.32   -41 LegendNANA
01:00 -36.7 -40.3 69 0.0 12 3   102.33   -41 LegendNANA
02:00 -37.0 -40.6 69 0.0 0 1   102.35   -38 LegendNANA
03:00 -37.4 -41.1 68 0.0 13 1   102.39   -39 LegendNANA
04:00 -36.8 -40.4 69 0.0 4 2   102.41   -39 LegendNANA
05:00 -35.8 -39.3 70 0.0 10 2   102.40   -38 LegendNANA
06:00 -36.9 -40.6 69 0.0 12 4   102.38   -42 LegendNANA
07:00 -36.5 -40.1 69 0.0   0   102.38     LegendNANA
08:00 -36.9 -40.6 68 0.0 13 4   102.34   -42 LegendNANA
09:00 -36.3 -39.9 70 0.0 11 4   102.32   -41 LegendNANA
10:00 -36.0 -39.5 70 0.0 11 2   102.32   -39 LegendNANA
11:00 -35.3 -38.8 70 0.0 11 4   102.30   -40 LegendNANA
12:00 -34.8 -38.2 71 0.0 9 5   102.27   -41 LegendNANA
13:00 -35.2 -38.7 71 0.0 12 5   102.23   -42 LegendNANA
14:00 -35.0 -38.4 71 0.0 10 5   102.20   -41 LegendNANA
15:00 -35.9 -39.4 70 0.0 12 5   102.15   -42 LegendNANA
16:00 -35.0 -38.4 71 0.0 8 4   102.15   -40 LegendNANA
17:00 -34.3 -37.7 71 0.0 0 1   102.09   -36 LegendNANA
18:00 -34.1 -37.4 72 0.0 9 6   102.06   -41 LegendNANA
19:00 -35.2 -38.6 71 0.0 11 9   101.96   -45 LegendNANA
20:00 -35.2 -38.7 71 0.0 11 11   101.91   -46 LegendNANA
21:00 -36.1 -39.7 70 0.0 11 14   101.84   -48 LegendNANA
22:00 -35.2 -38.7 70 0.0 10 15   101.80   -48 LegendNANA
23:00 -33.2 -36.5 73 0.0 10 10   101.79   -43 LegendNANA

Notes on Data Quality.

Legend

  • E = Estimated
  • M = Missing
  • NA = Not Available*
  • [empty] = Indicates an unobserved value
Date modified: